Temperature
9 9 9 9 9 10 10 10 10 10 11 11 10 10 11 12 12 12 14 15 15 16 17 17 17 17 18 18 18 18 18 18 18 17 17 17 17 17 16 16 15 15 14 14
8 8 9 10 10 10 10 9 9 10 10 11 9 9 10 11 11 13 13 14 15 15 16 17 17 17 17 17 18 18 18 18 18 18 18 17 17 17 17 17 16 15 15 14
8 9 10 10 10 10 10 9 9 9 9 9 8 8 9 9 11 12 13 13 14 15 15 16 17 17 17 17 17 17 17 17 17 17 17 17 17 17 16 16 16 15 15 15
9 10 10 9 9 9 9 9 9 9 7 6 7 6 7 8 9 10 12 14 15 16 16 16 16 16 16 16 17 17 17 17 17 17 17 17 17 16 16 17 16 16 15 15
8 9 9 9 9 10 9 9 9 8 7 6 6 5 7 7 9 11 11 14 16 17 17 16 16 16 16 16 16 16 16 16 17 16 16 16 16 17 17 17 16 16 16 15
9 9 10 9 10 10 9 8 7 6 5 5 5 4 6 7 9 11 12 14 16 16 16 16 16 16 16 16 16 16 16 16 16 16 16 16 16 16 16 16 16 16 15 15
8 9 9 9 9 9 8 6 5 6 6 5 6 5 6 8 9 10 11 13 15 15 15 15 15 15 15 15 15 15 16 16 16 16 16 16 16 16 16 16 16 16 15 15
6 7 8 8 8 7 7 6 5 6 6 5 6 6 7 9 10 12 12 13 13 14 14 14 14 14 14 14 15 15 15 15 15 15 15 15 15 16 16 16 16 16 15 15
6 7 8 8 9 8 7 6 6 5 4 4 5 6 7 10 11 10 11 12 12 12 12 13 13 13 13 13 14 14 14 14 15 15 15 15 15 15 15 15 15 15 14 14
7 7 8 8 9 9 8 7 5 3 4 5 5 6 7 10 10 10 9 10 11 11 11 11 11 11 12 12 13 13 13 14 14 14 14 14 14 14 15 15 14 14 13 12
8 6 7 7 7 6 7 7 5 4 3 4 5 7 8 10 10 9 9 10 10 10 10 10 10 10 10 11 12 12 13 13 13 13 13 13 13 13 14 14 13 13 12 11
8 6 5 6 7 7 6 6 5 4 4 3 3 6 9 8 9 9 10 10 10 9 9 9 9 9 9 10 11 11 12 12 12 12 12 12 12 12 12 12 12 11 10 10
8 6 4 5 6 6 6 6 6 5 5 3 4 6 9 8 9 10 10 9 8 8 7 7 8 8 8 9 10 10 11 11 11 11 11 12 11 11 11 11 10 9 9 9
8 5 4 5 6 6 6 6 6 5 4 4 4 6 8 9 9 10 9 8 7 7 6 6 7 7 7 8 8 9 10 10 10 10 10 10 10 10 10 9 9 8 8 7
7 5 5 5 6 6 6 6 6 5 5 5 5 7 8 9 9 9 7 6 6 5 5 5 6 6 6 7 8 8 8 8 9 9 9 9 9 9 8 8 7 6 5 5
6 6 6 6 6 6 6 6 6 6 6 6 7 7 9 9 9 7 6 4 4 4 4 5 5 5 6 6 6 7 7 7 7 7 7 7 7 7 6 5 4 4 3 3
5 5 6 5 6 6 6 7 7 7 7 8 7 8 9 9 8 5 4 3 2 3 3 4 5 5 5 5 5 5 5 5 5 5 5 5 5 4 3 3 2 2 2 2
5 5 5 6 6 6 8 10 9 8 9 9 9 9 9 8 7 4 3 2 2 2 3 3 4 4 4 4 4 4 4 3 3 3 3 2 2 2 1 1 1 1 1 1
6 6 6 6 6 6 8 9 9 9 8 9 8 8 8 8 6 4 3 2 1 1 2 2 3 3 3 3 3 3 3 2 2 2 1 1 1 0 0 0 0 0 1 1
6 6 6 6 6 6 9 10 10 9 8 9 8 8 7 7 6 5 2 2 1 1 1 1 2 2 2 1 2 2 1 1 0 0 -0 -0 -0 -0 -0 -0 0 0 0 0
6 6 6 6 6 7 8 9 9 9 9 10 9 8 7 6 5 3 2 2 1 0 0 0 1 1 0 0 0 1 0 -0 -0 -0 -0 -0 -0 -0 -0 0 0 0 -0 -0
6 6 6 6 6 7 9 9 9 9 10 9 8 7 6 5 4 3 2 2 1 0 0 -0 -0 -0 -1 -0 -0 -0 -0 -1 -1 -0 -0 -0 -0 -0 -0 -0 -0 -1 -1 -1
6 6 6 7 8 9 10 10 10 10 9 8 7 7 6 4 3 3 2 2 1 1 0 0 0 0 -0 -0 0 0 -0 -0 -0 -0 -0 -0 -0 -1 -1 -1 -1 -1 -1 -1
7 7 7 7 7 9 10 10 10 9 8 8 7 6 5 5 4 3 2 2 1 1 1 1 1 0 0 0 0 1 0 0 -0 -0 -1 -1 -1 -1 -1 -1 -1 -1 -2 -2
7 7 7 7 8 9 9 10 10 9 8 7 7 6 5 5 4 3 2 2 2 2 2 2 2 1 1 1 1 1 0 0 -0 -0 -1 -1 -1 -1 -1 -1 -1 -2 -2 -2
6 7 7 7 8 8 9 10 9 8 8 7 6 5 4 4 4 3 2 2 2 2 2 2 2 2 2 1 1 1 0 0 0 -0 -1 -1 -1 -1 -1 -2 -2 -2 -3 -4
Wind_Speed
6 5 8 11 9 6 5 2 4 5 4 5 7 11 14 12 11 14 16 16 16 16 14 10 10 10 10 9 9 11 14 15 14 11 12 12 12 11 11 10 13 16 16 17
5 5 6 7 6 4 3 4 5 5 4 5 8 14 14 15 14 18 20 20 19 16 13 12 11 10 9 10 10 9 12 14 15 15 14 12 12 9 10 9 10 15 16 18
6 4 7 6 5 6 4 4 3 4 7 6 7 11 8 9 9 12 15 17 17 18 17 14 12 12 11 11 11 10 11 13 14 13 8 5 4 3 3 7 9 10 14 16
4 2 6 7 5 6 3 1 2 2 4 5 4 7 9 8 11 10 10 10 13 14 14 12 12 12 12 12 11 11 11 11 12 12 11 13 12 10 10 10 9 8 10 13
5 5 6 6 4 6 5 4 5 3 3 5 2 4 11 8 8 10 10 10 10 10 10 10 10 11 11 10 9 9 9 10 10 12 15 16 12 9 6 7 9 8 8 9
3 3 4 5 4 5 6 6 6 4 4 5 5 6 8 6 7 8 9 9 7 6 5 5 6 5 5 5 5 6 7 8 9 11 14 16 14 11 11 10 11 8 7 7
3 2 3 4 5 4 6 5 3 2 2 7 4 5 10 12 11 10 11 9 6 4 3 4 4 4 4 4 4 4 5 7 8 10 13 14 15 17 18 16 14 12 9 7
6 4 6 4 5 6 6 7 6 5 4 5 4 7 9 11 9 7 5 5 6 6 5 5 5 4 5 6 5 4 5 7 7 9 11 12 14 13 11 13 13 13 10 8
6 3 3 5 4 7 6 5 5 3 2 5 7 8 10 6 4 6 9 10 10 10 9 9 8 6 6 6 6 5 6 7 7 9 9 10 12 12 12 12 10 9 8 9
5 5 4 4 4 1 4 6 5 4 2 5 7 6 5 6 6 7 9 10 12 12 12 11 10 8 7 7 7 6 6 7 7 8 9 9 10 11 12 13 13 12 12 12
3 5 4 4 6 8 5 4 4 4 4 3 5 8 6 4 5 7 9 10 12 13 13 12 11 10 9 8 7 6 5 5 5 8 9 10 9 10 12 12 13 13 12 14
3 5 3 3 4 7 7 6 6 4 4 4 3 9 8 7 7 9 13 15 16 16 14 13 12 10 9 9 8 7 5 5 6 7 9 11 11 11 11 12 13 13 14 13
5 5 4 1 2 3 5 6 6 5 3 4 4 9 5 7 13 15 17 18 17 16 16 13 11 9 9 8 7 6 4 3 5 8 10 11 11 12 12 13 13 14 14 14
5 4 5 7 4 5 5 7 9 8 5 6 10 16 18 18 19 19 16 15 15 14 13 12 10 8 6 6 5 3 0 3 7 9 10 11 12 12 13 14 14 14 14 15
5 4 4 6 6 5 7 8 10 13 12 10 11 14 22 21 19 16 12 13 14 13 12 11 8 5 5 5 5 5 5 6 8 10 10 11 12 13 14 14 14 14 14 15
4 3 1 4 5 7 8 12 13 14 14 17 21 23 21 15 10 9 10 12 13 13 12 10 6 4 4 5 6 7 9 9 10 12 12 12 13 14 15 15 15 15 15 14
4 4 1 4 5 4 7 10 12 8 9 11 14 12 12 13 11 7 8 10 11 11 10 8 5 5 6 7 8 9 10 11 12 13 13 13 15 16 15 16 16 15 14 14
7 5 2 3 4 5 5 2 7 8 10 11 11 11 11 11 5 1 4 7 9 10 8 7 6 7 7 8 10 11 12 13 14 14 15 14 15 16 15 16 15 13 12 11
6 5 2 2 3 7 7 4 4 5 7 7 8 10 9 6 2 1 5 6 6 7 7 7 7 8 9 10 11 13 13 14 14 14 14 14 15 15 15 14 13 11 10 8
5 4 3 2 3 4 5 3 1 1 5 5 6 8 7 4 3 3 4 5 6 7 7 8 8 10 10 10 11 14 14 14 14 14 14 13 13 14 13 12 10 8 7 6
5 5 6 5 5 7 7 5 2 1 5 5 5 7 4 3 2 1 3 4 5 6 7 8 9 9 9 9 12 14 13 13 12 12 13 12 12 12 11 9 7 7 6 6
8 6 6 6 6 8 5 2 3 6 5 4 4 4 3 4 4 4 4 4 5 6 7 8 8 9 8 9 11 13 12 10 11 12 12 11 10 9 8 8 7 6 6 6
8 8 6 8 9 6 3 5 4 3 5 4 3 2 5 6 5 5 4 4 5 6 6 6 8 8 8 8 10 12 9 10 11 12 11 10 9 8 7 7 7 5 5 5
4 4 4 5 8 8 7 5 4 3 4 4 4 4 6 6 7 7 6 5 6 6 6 7 8 8 8 8 9 9 9 9 11 11 9 8 8 7 6 5 5 5 5 4
4 3 3 6 7 6 5 5 4 3 3 2 1 3 7 9 9 7 7 6 6 7 7 7 8 8 8 8 8 8 8 9 10 9 8 7 7 7 6 5 5 5 3 4
4 6 5 6 6 5 6 4 4 4 4 3 3 4 6 8 9 8 7 7 7 7 7 8 8 9 8 8 8 7 7 8 10 9 7 5 5 5 5 5 5 7 5 6
Wind_Direction
149 158 185 187 187 172 149 173 256 265 329 333 279 273 273 271 267 265 265 262 259 260 261 261 254 250 252 250 231 214 210 209 201 195 191 191 196 196 195 196 191 185 178 171
132 196 190 174 194 220 248 276 281 295 341 333 292 283 272 261 252 249 253 257 258 260 266 262 255 251 245 245 242 224 214 211 206 203 198 196 194 194 195 190 187 184 177 173
143 177 166 163 181 195 210 218 244 294 338 354 335 298 277 278 266 257 251 251 253 252 255 257 254 251 247 243 237 233 218 213 209 205 193 166 138 115 160 184 188 186 178 174
136 151 152 160 173 153 171 80 138 33 16 319 10 305 292 291 303 291 280 268 257 254 253 252 251 251 248 246 240 235 228 217 207 197 187 179 184 185 191 188 183 174 174 174
166 150 127 146 154 137 146 100 79 68 53 327 265 241 285 304 292 292 294 286 272 263 255 255 253 249 252 252 250 243 238 228 211 198 193 194 197 187 166 158 158 161 164 167
130 143 139 147 114 123 124 69 42 50 58 291 228 197 281 270 256 299 315 315 301 287 276 269 268 262 262 260 253 249 239 237 220 203 197 197 188 166 157 162 165 161 155 157
118 97 115 117 110 100 103 91 43 335 261 258 220 207 255 262 266 273 290 304 310 312 319 310 303 292 274 267 259 253 245 241 225 207 202 199 187 176 176 173 172 167 165 168
147 186 190 150 149 154 147 140 167 209 243 287 285 238 256 268 286 292 300 315 331 334 327 309 294 285 284 280 273 262 252 246 229 210 204 195 182 180 179 175 172 175 175 165
150 187 146 153 134 135 146 177 164 131 322 284 281 287 295 279 338 3 3 358 345 331 323 311 303 294 282 274 263 255 249 248 229 209 195 182 174 171 167 163 155 151 144 145
137 125 133 124 113 126 133 145 120 140 195 279 291 274 260 299 334 349 353 347 337 332 324 315 306 293 284 273 267 267 253 239 223 194 179 172 167 162 156 153 152 150 147 147
85 117 134 139 177 185 161 166 155 151 167 194 290 277 230 262 302 320 325 323 320 318 313 306 302 299 293 287 278 273 267 241 204 181 162 152 151 146 147 151 150 148 145 146
137 116 150 222 244 181 170 181 156 166 224 204 230 274 270 271 288 310 317 317 314 310 305 299 294 294 293 292 288 276 260 222 190 167 148 144 142 142 142 142 142 141 141 141
138 118 106 11 319 172 196 192 182 166 173 201 224 263 289 314 314 314 315 314 313 310 308 303 298 293 291 292 292 280 256 204 156 142 138 135 137 138 136 136 136 137 136 134
122 125 169 184 195 178 205 200 191 185 210 232 234 263 287 299 304 309 312 314 313 311 310 308 305 304 304 303 309 310 91 124 126 126 129 131 131 131 130 130 131 132 131 128
111 157 209 240 242 218 217 216 203 208 215 231 255 268 283 294 301 308 317 320 320 321 321 318 319 328 338 352 15 41 66 82 103 109 112 115 116 118 119 119 121 120 119 117
106 137 265 286 263 236 243 237 226 229 233 243 261 275 279 286 298 315 328 330 328 327 328 328 334 355 19 34 51 64 71 76 88 96 100 104 108 109 109 110 110 108 107 107
138 149 206 280 308 323 264 233 211 210 215 223 248 258 284 302 311 324 331 332 331 331 336 345 360 33 53 59 67 71 75 82 87 91 95 97 100 101 101 103 101 101 101 101
146 153 182 289 330 255 247 254 189 215 241 232 245 266 285 296 303 48 357 339 340 346 355 13 33 51 59 69 76 79 82 85 88 90 91 94 97 98 98 97 97 97 98 102
152 155 192 253 283 280 285 250 203 230 273 242 243 269 285 307 278 182 24 8 0 4 16 34 48 62 69 75 84 88 86 88 90 92 94 96 99 100 99 99 99 99 102 105
156 146 190 230 268 261 259 261 196 167 278 252 240 268 290 321 303 313 26 27 27 30 38 50 60 68 72 75 86 89 89 90 91 94 95 96 100 102 103 103 102 103 110 115
178 193 213 224 248 268 259 259 129 232 270 274 251 260 264 235 223 103 70 59 55 55 57 62 67 70 72 82 91 92 91 92 96 97 96 95 97 102 106 105 107 112 111 108
184 191 199 195 218 253 260 192 206 244 276 281 267 247 204 155 129 118 100 90 87 79 74 76 79 75 71 83 95 96 93 94 96 97 96 96 97 102 106 106 103 102 107 103
197 197 192 202 221 242 251 235 253 268 274 271 257 227 158 152 154 140 125 114 110 106 97 93 93 87 78 81 97 102 101 103 102 101 100 100 97 95 100 104 106 98 95 98
241 195 208 245 258 261 262 250 253 250 255 266 255 200 167 161 153 145 135 125 120 116 112 108 103 98 93 93 98 105 112 112 110 108 105 103 100 93 84 86 93 98 99 99
239 195 226 257 275 288 268 234 232 239 250 265 242 163 161 152 152 148 140 134 128 121 116 113 111 111 108 108 107 112 117 117 111 104 100 96 93 95 87 79 83 97 101 129
226 202 206 238 244 237 263 252 210 216 228 209 155 129 142 150 149 144 140 135 130 126 123 120 118 118 116 113 109 106 107 114 115 110 101 97 95 90 89 88 70 70 81 78
Height
1477 1482 1483 1485 1487 1490 1493 1494 1496 1493 1488 1487 1485 1483 1477 1473 1472 1470 1467 1464 1462 1461 1461 1464 1466 1469 1471 1473 1475 1477 1479 1481 1484 1487 1489 1491 1493 1496 1498 1501 1504 1506 1509 1511
1479 1481 1480 1482 1485 1488 1491 1495 1495 1492 1489 1488 1487 1480 1472 1466 1463 1461 1459 1457 1455 1455 1456 1458 1460 1462 1464 1466 1467 1469 1471 1474 1476 1478 1481 1484 1487 1489 1492 1495 1499 1502 1504 1506
1476 1479 1479 1482 1485 1489 1491 1493 1494 1494 1491 1489 1489 1479 1470 1459 1454 1452 1450 1449 1448 1449 1449 1450 1453 1455 1457 1459 1461 1462 1464 1466 1468 1471 1475 1477 1480 1483 1486 1489 1492 1495 1498 1500
1476 1476 1478 1482 1485 1487 1492 1491 1492 1494 1498 1501 1499 1496 1473 1463 1455 1448 1445 1443 1442 1443 1444 1445 1447 1448 1450 1452 1454 1455 1457 1459 1461 1464 1466 1468 1470 1473 1476 1481 1485 1489 1492 1495
1476 1476 1478 1482 1484 1485 1490 1491 1493 1495 1500 1505 1501 1504 1478 1466 1458 1448 1443 1441 1439 1440 1441 1442 1443 1444 1445 1446 1447 1448 1449 1451 1453 1456 1457 1460 1463 1466 1470 1474 1478 1482 1486 1489
1475 1476 1477 1480 1482 1484 1488 1493 1497 1501 1506 1510 1500 1505 1485 1468 1457 1449 1444 1441 1439 1439 1440 1440 1441 1441 1441 1441 1442 1442 1443 1444 1446 1448 1450 1452 1456 1459 1463 1466 1471 1475 1479 1482
1477 1478 1478 1479 1484 1487 1490 1501 1511 1508 1506 1505 1493 1496 1481 1459 1453 1451 1447 1443 1441 1440 1440 1439 1439 1438 1437 1437 1437 1437 1438 1438 1440 1441 1443 1445 1448 1452 1456 1460 1464 1468 1472 1475
1482 1485 1480 1480 1484 1488 1491 1499 1511 1510 1508 1501 1489 1488 1470 1453 1449 1447 1445 1443 1441 1440 1439 1438 1436 1435 1434 1433 1433 1433 1432 1432 1433 1434 1436 1438 1441 1444 1449 1454 1458 1462 1465 1469
1482 1483 1479 1480 1482 1486 1491 1496 1500 1507 1510 1510 1495 1483 1466 1450 1448 1446 1444 1442 1441 1439 1437 1435 1433 1431 1430 1429 1428 1427 1427 1427 1427 1428 1429 1431 1433 1437 1442 1447 1452 1456 1459 1463
1473 1481 1480 1481 1483 1485 1488 1492 1502 1513 1514 1507 1496 1486 1470 1454 1450 1448 1445 1443 1440 1437 1434 1432 1429 1427 1425 1423 1422 1422 1422 1421 1421 1422 1423 1424 1427 1430 1436 1440 1445 1449 1453 1457
1471 1481 1483 1483 1486 1488 1490 1493 1497 1507 1511 1511 1502 1477 1457 1452 1450 1448 1445 1443 1440 1436 1432 1428 1425 1422 1419 1418 1416 1416 1416 1415 1416 1416 1417 1419 1422 1426 1430 1435 1439 1444 1448 1452
1471 1480 1487 1485 1483 1483 1487 1490 1496 1506 1507 1507 1508 1479 1450 1450 1448 1446 1443 1439 1435 1431 1427 1423 1419 1416 1414 1412 1410 1409 1409 1410 1410 1411 1412 1415 1418 1422 1426 1430 1435 1439 1443 1448
1470 1480 1493 1491 1490 1487 1486 1487 1490 1494 1499 1504 1501 1474 1449 1447 1445 1443 1440 1435 1431 1426 1421 1416 1413 1410 1408 1406 1404 1403 1403 1404 1405 1407 1409 1411 1414 1419 1423 1427 1431 1436 1440 1444
1470 1479 1488 1488 1483 1483 1483 1483 1485 1490 1495 1494 1486 1466 1450 1446 1443 1439 1436 1432 1427 1423 1417 1412 1408 1405 1403 1401 1399 1398 1398 1399 1401 1403 1406 1408 1411 1416 1420 1425 1429 1433 1437 1442
1470 1479 1480 1480 1477 1477 1478 1478 1480 1482 1483 1484 1471 1462 1449 1444 1441 1437 1433 1430 1425 1420 1415 1410 1406 1403 1401 1399 1397 1396 1396 1398 1399 1401 1404 1407 1410 1415 1419 1423 1427 1431 1436 1441
1471 1476 1476 1476 1472 1473 1474 1471 1472 1473 1472 1470 1464 1456 1444 1440 1437 1434 1432 1428 1424 1419 1414 1409 1406 1403 1401 1399 1398 1397 1397 1398 1399 1401 1404 1407 1410 1414 1418 1422 1426 1431 1436 1442
1473 1476 1478 1478 1473 1471 1471 1459 1461 1462 1458 1457 1455 1448 1440 1437 1435 1433 1431 1427 1423 1418 1414 1410 1407 1405 1403 1402 1401 1401 1400 1401 1402 1404 1406 1409 1412 1415 1419 1424 1428 1433 1439 1445
1472 1475 1477 1476 1475 1473 1458 1448 1449 1451 1448 1447 1444 1441 1438 1436 1433 1431 1429 1426 1422 1418 1414 1411 1409 1407 1406 1405 1404 1404 1404 1405 1406 1408 1410 1413 1415 1419 1423 1428 1433 1438 1444 1449
1468 1472 1475 1474 1473 1467 1454 1447 1446 1448 1445 1440 1440 1437 1435 1433 1431 1430 1428 1425 1422 1419 1416 1413 1411 1410 1409 1408 1408 1408 1409 1410 1411 1412 1414 1417 1421 1424 1428 1433 1438 1443 1448 1452
1468 1470 1474 1472 1470 1466 1451 1444 1443 1447 1445 1437 1436 1435 1433 1432 1431 1430 1427 1424 1422 1419 1417 1415 1414 1413 1412 1412 1412 1412 1412 1414 1415 1417 1420 1423 1427 1430 1434 1439 1443 1447 1451 1454
1467 1469 1469 1468 1467 1459 1447 1442 1444 1449 1443 1435 1433 1432 1431 1431 1431 1429 1426 1424 1422 1421 1419 1417 1416 1415 1415 1416 1416 1415 1417 1418 1420 1423 1425 1428 1432 1436 1440 1444 1447 1450 1453 1456
1461 1462 1463 1464 1464 1458 1441 1441 1443 1441 1434 1432 1430 1429 1428 1428 1428 1427 1426 1425 1424 1422 1421 1420 1419 1419 1419 1419 1420 1420 1421 1424 1426 1428 1431 1434 1438 1441 1445 1448 1450 1453 1455 1456
1455 1454 1454 1454 1451 1441 1438 1438 1437 1435 1433 1430 1428 1427 1426 1426 1426 1427 1427 1426 1425 1425 1424 1424 1423 1423 1423 1424 1425 1425 1427 1429 1432 1434 1437 1441 1444 1446 1449 1451 1453 1455 1456 1457
1447 1446 1448 1447 1441 1437 1436 1434 1433 1432 1430 1428 1426 1425 1424 1424 1425 1426 1427 1427 1427 1427 1427 1427 1427 1427 1428 1429 1431 1432 1434 1436 1438 1440 1443 1446 1448 1450 1452 1454 1455 1456 1456 1456
1445 1444 1444 1442 1438 1435 1432 1431 1431 1429 1427 1425 1424 1423 1423 1423 1424 1425 1426 1427 1428 1429 1430 1430 1431 1432 1433 1434 1436 1438 1439 1442 1444 1445 1447 1450 1451 1453 1454 1455 1456 1456 1456 1455
1441 1441 1442 1439 1434 1433 1431 1429 1428 1427 1425 1424 1422 1422 1422 1423 1423 1425 1426 1428 1429 1431 1432 1433 1434 1435 1437 1439 1440 1442 1444 1447 1448 1449 1451 1453 1454 1455 1456 1456 1456 1455 1455 1454